EW7574 Weather Reports


Display with metric or nautical units.
time (UTC)temp
F
wind
direction
speed
MPH
gust
MPH
rain 1hr
in
rain 24hr
in
rain mn
in
humidity
%
barometer
mb
20260507110057 49 332 9.0 21.0 0.04 0.64 0.31 90 1006.0
20260507104554 49 306 10.0 19.0 0.21 0.64 0.31 91 1005.8
20260507103049 49 322 9.0 17.0 0.22 0.63 0.30 91 1005.6
20260507101601 50 335 10.0 17.0 0.22 0.62 0.28 91 1005.4
20260507100045 50 294 12.0 17.0 0.26 0.60 0.27 91 1004.9
20260507094553 51 336 9.0 17.0 0.09 0.43 0.10 91 1005.4
20260507093037 53 5 10.0 17.0 0.06 0.40 0.07 91 1004.8
20260507091551 54 301 4.0 16.0 0.07 0.40 0.07 92 1005.0
20260507090033 54 300 4.0 8.0 0.01 0.34 0.01 92 1005.5
20260507084530 54 245 2.0 7.0 0.01 0.34 0.01 91 1004.9
20260507083030 54 228 2.0 6.0 0.01 0.34 0.01 91 1004.1
20260507081540 54 189 1.0 5.0 0.00 0.33 0.00 91 1004.0
20260507080025 55 211 1.0 3.0 0.00 0.33 0.00 91 1004.2
20260507074527 55 196 2.0 4.0 0.00 0.33 0.00 91 1004.3
20260507073022 55 220 2.0 6.0 0.00 0.33 0.00 91 1004.5
20260507071521 55 234 3.0 6.0 0.00 0.33 0.00 91 1005.0
20260507070020 55 263 1.0 5.0 0.00 0.33 0.00 91 1004.5
20260507064520 55 263 1.0 8.0 0.00 0.33 0.00 91 1004.5
20260507063018 55 211 3.0 9.0 0.00 0.33 0.00 91 1004.7
20260507061529 55 292 3.0 12.0 0.00 0.33 0.00 91 1004.6
20260507060026 56 234 5.0 12.0 0.00 0.33 0.00 91 1004.7
20260507054513 56 255 3.0 11.0 0.00 0.33 0.00 91 1004.9
20260507053111 56 213 4.0 12.0 0.00 0.33 0.00 91 1005.3
20260507051510 56 219 5.0 15.0 0.00 0.33 0.00 91 1005.4
20260507050016 56 215 5.0 11.0 0.00 0.33 0.00 91 1005.4
20260507044511 56 197 4.0 11.0 0.00 0.33 0.00 91 1005.5
20260507043004 56 243 5.0 14.0 0.00 0.33 0.00 91 1005.8
20260507041502 56 318 6.0 12.0 0.00 0.33 0.00 91 1006.0
20260507040100 56 243 7.0 19.0 0.00 0.33 0.00 91 1005.7
20260507034604 56 267 7.0 21.0 0.00 0.33 0.33 91 1006.0
20260507033102 56 222 9.0 17.0 0.00 0.33 0.33 91 1005.6
20260507031558 56 221 5.0 17.0 0.00 0.33 0.33 91 1005.6
20260507030106 56 213 7.0 15.0 0.00 0.33 0.33 91 1005.8
20260507024558 56 231 6.0 21.0 0.00 0.33 0.33 91 1006.3
20260507023052 56 229 8.0 18.0 0.00 0.33 0.33 91 1006.4
20260507021607 56 178 7.0 20.0 0.00 0.33 0.33 91 1006.7
20260507020053 56 186 7.0 21.0 0.01 0.33 0.33 90 1006.7
20260507014607 57 190 7.0 17.0 0.05 0.33 0.33 90 1007.1
20260507013049 57 227 7.0 17.0 0.11 0.33 0.33 90 1007.0
20260507011544 57 211 7.0 21.0 0.16 0.33 0.33 90 1007.1
20260507010050 56 229 7.0 15.0 0.17 0.32 0.32 90 1007.2
20260507004543 57 230 6.0 19.0 0.13 0.27 0.27 90 1007.2
20260507003041 56 198 7.0 25.0 0.12 0.22 0.22 89 1007.1
20260507001541 56 184 10.0 22.0 0.13 0.17 0.17 89 1007.1
20260507000043 57 197 8.0 22.0 0.15 0.15 0.15 89 1007.1
20260506234536 57 205 8.0 21.0 0.14 0.14 0.14 88 1007.3
20260506233036 57 180 8.0 22.0 0.10 0.10 0.10 87 1007.5
20260506231535 58 189 10.0 22.0 0.04 0.04 0.04 85 1007.6
20260506230036 60 226 10.0 23.0 0.00 0.00 0.00 81 1007.5
20260506224536 60 196 9.0 22.0 0.00 0.00 0.00 80 1007.6
20260506223034 60 206 9.0 21.0 0.00 0.00 0.00 79 1007.7
20260506221532 60 226 10.0 25.0 0.00 0.00 0.00 79 1007.9
20260506220035 60 203 10.0 18.0 0.00 0.00 0.00 78 1008.0
20260506214529 61 229 7.0 23.0 0.00 0.00 0.00 78 1007.9
20260506213027 61 173 6.0 20.0 0.00 0.00 0.00 77 1008.1
20260506211526 61 213 10.0 28.0 0.00 0.00 0.00 77 1008.0
20260506210025 62 224 10.0 22.0 0.00 0.00 0.00 76 1008.2
20260506204526 62 209 9.0 18.0 0.00 0.00 0.00 76 1008.5
20260506203024 62 229 9.0 20.0 0.00 0.00 0.00 76 1008.7
20260506201537 62 203 6.0 19.0 0.00 0.00 0.00 75 1008.7
20260506200026 62 182 8.0 23.0 0.00 0.00 0.00 75 1008.8
20260506194520 61 206 5.0 24.0 0.00 0.00 0.00 75 1009.0
20260506193022 62 220 11.0 24.0 0.00 0.00 0.00 74 1008.9
20260506191519 63 199 9.0 23.0 0.00 0.00 0.00 74 1009.2
20260506190017 63 212 5.0 22.0 0.00 0.00 0.00 73 1009.3
20260506184516 63 223 12.0 25.0 0.00 0.00 0.00 72 1009.9
20260506183014 65 256 7.0 26.0 0.00 0.00 0.00 70 1010.0
20260506181512 66 245 8.0 18.0 0.00 0.00 0.00 69 1010.4
20260506180011 65 192 12.0 25.0 0.00 0.00 0.00 70 1010.3
20260506174509 64 195 14.0 26.0 0.00 0.00 0.00 73 1010.2
20260506173007 63 246 6.0 17.0 0.00 0.00 0.00 73 1010.5
20260506171507 63 226 5.0 20.0 0.00 0.00 0.00 74 1010.7
20260506170005 63 250 8.0 18.0 0.00 0.00 0.00 73 1011.1
20260506164506 65 274 11.0 23.0 0.00 0.00 0.00 70 1011.1
20260506163005 64 196 11.0 19.0 0.00 0.00 0.00 71 1011.1
20260506161604 65 209 11.0 26.0 0.00 0.00 0.00 70 1011.6
20260506160059 66 175 6.0 22.0 0.00 0.00 0.00 70 1011.7
20260506154602 65 184 8.0 23.0 0.00 0.00 0.00 71 1011.8
20260506153052 64 233 6.0 21.0 0.00 0.00 0.00 73 1011.9
20260506151552 64 273 11.0 29.0 0.00 0.00 0.00 73 1011.7
20260506150052 64 232 9.0 18.0 0.00 0.00 0.00 73 1011.7
20260506144550 64 217 9.0 25.0 0.00 0.00 0.00 73 1011.7
20260506143047 63 206 10.0 26.0 0.00 0.00 0.00 73 1011.9
20260506141552 64 186 7.0 24.0 0.00 0.00 0.00 73 1012.2
20260506140052 63 189 6.0 24.0 0.00 0.00 0.00 75 1012.1
20260506134539 62 217 9.0 22.0 0.00 0.00 0.00 76 1011.9
20260506133037 62 196 8.0 18.0 0.00 0.00 0.00 76 1011.9
20260506131535 61 240 11.0 22.0 0.00 0.00 0.00 77 1012.0
20260506130033 60 230 8.0 19.0 0.00 0.00 0.00 78 1012.0
20260506124526 60 208 7.0 17.0 0.00 0.00 0.00 79 1011.9
20260506123023 59 207 7.0 16.0 0.00 0.00 0.00 81 1012.2
20260506121520 58 229 9.0 17.0 0.00 0.00 0.00 81 1012.3
20260506120025 59 201 7.0 20.0 0.00 0.00 0.00 80 1012.4
20260506114518 59 217 7.0 21.0 0.00 0.00 0.00 81 1012.2
20260506113017 58 211 11.0 20.0 0.00 0.00 0.00 82 1012.2
20260506111510 57 258 7.0 18.0 0.00 0.00 0.00 84 1012.3